• In Portugal
  • List of Countries
  • For 7 days
  • Water Temperature
  • Satellite Maps
  • Weather Map
  • Weather Widgets
  • user-avatar
    Login

    Hourly Weather Giumri

    Today, 25 September, Monday

    Time Temperature Precipitation Wind Pressure Humidity
    00:00 +13°C° 0.2 mm 2 mps 637 mmHg 88%
    01:00 +13°C° 0.2 mm 2 mps 637 mmHg 88%
    02:00 +13°C° 0.2 mm 2 mps 637 mmHg 89%
    03:00 +13°C° 0 mm 2 mps 637 mmHg 92%
    04:00 +13°C° 0.3 mm 2 mps 637 mmHg 92%
    05:00 +13°C° 0.3 mm 2 mps 637 mmHg 92%
    06:00 +13°C° 0.3 mm 1 mps 637 mmHg 93%
    07:00 +15°C° 0.3 mm 1 mps 637 mmHg 83%
    08:00 +16°C° 0.3 mm 1 mps 638 mmHg 73%
    09:00 +19°C° 0.3 mm 1 mps 638 mmHg 63%
    10:00 +20°C° 0.7 mm 1 mps 638 mmHg 56%
    11:00 +22°C° 0.7 mm 1 mps 639 mmHg 50%
    12:00 +23°C° 0.7 mm 2 mps 639 mmHg 43%
    13:00 +23°C° 0.9 mm 2 mps 638 mmHg 43%
    14:00 +23°C° 0.9 mm 2 mps 638 mmHg 43%
    15:00 +23°C° 0.9 mm 2 mps 638 mmHg 42%
    16:00 +21°C° 1.1 mm 2 mps 637 mmHg 50%
    17:00 +19°C° 1.1 mm 2 mps 637 mmHg 57%
    18:00 +17°C° 1.1 mm 2 mps 637 mmHg 64%
    19:00 +17°C° 0.5 mm 2 mps 637 mmHg 68%
    20:00 +16°C° 0.5 mm 2 mps 637 mmHg 73%
    21:00 +15°C° 0.5 mm 2 mps 637 mmHg 77%
    22:00 +14°C° 0 mm 2 mps 637 mmHg 80%
    23:00 +14°C° 0 mm 1 mps 636 mmHg 82%

    Tomorrow, 26 September, Tuesday

    Time Temperature Precipitation Wind Pressure Humidity
    00:00 +13°C° 0 mm 1 mps 636 mmHg 85%
    01:00 +13°C° 0 mm 1 mps 636 mmHg 86%
    02:00 +13°C° 0 mm 1 mps 636 mmHg 87%
    03:00 +12°C° 0 mm 1 mps 636 mmHg 88%
    04:00 +12°C° 0 mm 1 mps 635 mmHg 89%
    05:00 +12°C° 0 mm 1 mps 635 mmHg 90%
    06:00 +11°C° 0 mm 1 mps 635 mmHg 91%
    07:00 +13°C° 0 mm 1 mps 635 mmHg 81%
    08:00 +15°C° 0 mm 1 mps 636 mmHg 70%
    09:00 +18°C° 0 mm 1 mps 636 mmHg 60%
    10:00 +18°C° 0 mm 2 mps 637 mmHg 53%
    11:00 +20°C° 0 mm 2 mps 637 mmHg 45%
    12:00 +21°C° 0 mm 2 mps 637 mmHg 38%
    13:00 +23°C° 0 mm 2 mps 637 mmHg 37%
    14:00 +23°C° 0 mm 2 mps 636 mmHg 35%
    15:00 +24°C° 0 mm 2 mps 636 mmHg 34%
    16:00 +21°C° 0 mm 2 mps 636 mmHg 41%
    17:00 +19°C° 0 mm 2 mps 635 mmHg 49%
    18:00 +17°C° 0 mm 2 mps 634 mmHg 56%
    19:00 +16°C° 0 mm 2 mps 635 mmHg 63%
    20:00 +16°C° 0 mm 2 mps 635 mmHg 70%
    21:00 +15°C° 0 mm 2 mps 635 mmHg 77%
    22:00 +15°C° 0.1 mm 2 mps 635 mmHg 79%
    23:00 +14°C° 0.1 mm 2 mps 635 mmHg 81%

    Day after tomorrow, 27 September, Wednesday

    Time Temperature Precipitation Wind Pressure Humidity
    00:00 +14°C° 0.1 mm 2 mps 635 mmHg 82%
    01:00 +14°C° 0.2 mm 2 mps 634 mmHg 84%
    02:00 +14°C° 0.2 mm 2 mps 634 mmHg 86%
    03:00 +13°C° 0.2 mm 2 mps 634 mmHg 87%
    04:00 +13°C° 0.4 mm 1 mps 634 mmHg 87%
    05:00 +13°C° 0.4 mm 1 mps 634 mmHg 88%
    06:00 +13°C° 0.4 mm 1 mps 633 mmHg 88%
    07:00 +14°C° 0.4 mm 1 mps 634 mmHg 80%
    08:00 +15°C° 0.4 mm 1 mps 634 mmHg 71%
    09:00 +16°C° 0.4 mm 1 mps 635 mmHg 63%
    10:00 +19°C° 0.5 mm 1 mps 635 mmHg 58%
    11:00 +19°C° 0.5 mm 2 mps 635 mmHg 54%
    12:00 +20°C° 0.5 mm 2 mps 635 mmHg 49%
    13:00 +20°C° 1.2 mm 2 mps 635 mmHg 51%
    14:00 +20°C° 1.2 mm 2 mps 635 mmHg 54%
    15:00 +19°C° 1.2 mm 2 mps 634 mmHg 56%
    16:00 +18°C° 1.4 mm 3 mps 634 mmHg 64%
    17:00 +16°C° 1.4 mm 3 mps 634 mmHg 72%
    18:00 +14°C° 1.4 mm 3 mps 634 mmHg 80%
    19:00 +13°C° 0.6 mm 3 mps 634 mmHg 82%
    20:00 +14°C° 0.6 mm 2 mps 634 mmHg 85%
    21:00 +13°C° 0.6 mm 2 mps 634 mmHg 87%
    22:00 +13°C° 0.2 mm 2 mps 634 mmHg 88%
    23:00 +13°C° 0.2 mm 1 mps 634 mmHg 88%

    28 September, Thursday

    Time Temperature Precipitation Wind Pressure Humidity
    00:00 +12°C° 0.2 mm 1 mps 634 mmHg 89%
    01:00 +12°C° 0.1 mm 1 mps 634 mmHg 90%
    02:00 +12°C° 0.1 mm 1 mps 634 mmHg 91%
    03:00 +11°C° 0.1 mm 1 mps 633 mmHg 91%
    04:00 +11°C° 0.1 mm 1 mps 633 mmHg 91%
    05:00 +11°C° 0.1 mm 1 mps 633 mmHg 91%
    06:00 +11°C° 0.1 mm 1 mps 633 mmHg 91%
    07:00 +12°C° 0.2 mm 1 mps 634 mmHg 84%
    08:00 +13°C° 0.2 mm 1 mps 635 mmHg 77%
    09:00 +15°C° 0.2 mm 1 mps 635 mmHg 70%
    10:00 +16°C° 0.2 mm 1 mps 635 mmHg 66%
    11:00 +16°C° 0.2 mm 2 mps 636 mmHg 62%
    12:00 +17°C° 0.2 mm 2 mps 636 mmHg 58%
    13:00 +17°C° 0.6 mm 2 mps 636 mmHg 60%
    14:00 +17°C° 0.6 mm 2 mps 635 mmHg 62%
    15:00 +16°C° 0.6 mm 2 mps 635 mmHg 64%
    16:00 +15°C° 0.5 mm 2 mps 635 mmHg 70%
    17:00 +13°C° 0.5 mm 3 mps 635 mmHg 77%
    18:00 +12°C° 0.5 mm 3 mps 635 mmHg 83%
    19:00 +11°C° 0.2 mm 3 mps 635 mmHg 85%
    20:00 +11°C° 0.2 mm 3 mps 635 mmHg 86%
    21:00 +10°C° 0.2 mm 3 mps 636 mmHg 88%
    22:00 +10°C° 0.1 mm 3 mps 636 mmHg 88%
    23:00 +10°C° 0.1 mm 2 mps 636 mmHg 89%

    29 September, Friday

    Time Temperature Precipitation Wind Pressure Humidity
    00:00 +9°C° 0.1 mm 2 mps 635 mmHg 89%
    01:00 +9°C° 0 mm 2 mps 635 mmHg 89%
    02:00 +9°C° 0 mm 2 mps 635 mmHg 90%
    03:00 +9°C° 0 mm 2 mps 635 mmHg 91%
    04:00 +9°C° 0 mm 2 mps 635 mmHg 91%
    05:00 +8°C° 0 mm 2 mps 635 mmHg 92%
    06:00 +8°C° 0 mm 2 mps 635 mmHg 93%
    07:00 +9°C° 0 mm 2 mps 635 mmHg 87%
    08:00 +12°C° 0 mm 2 mps 635 mmHg 80%
    09:00 +13°C° 0 mm 2 mps 636 mmHg 73%
    10:00 +13°C° 0 mm 3 mps 636 mmHg 68%
    11:00 +14°C° 0 mm 3 mps 636 mmHg 63%
    12:00 +16°C° 0 mm 3 mps 636 mmHg 58%
    13:00 +16°C° 0.2 mm 3 mps 635 mmHg 60%
    14:00 +16°C° 0.2 mm 3 mps 635 mmHg 61%
    15:00 +16°C° 0.2 mm 3 mps 634 mmHg 62%
    16:00 +14°C° 0.5 mm 3 mps 634 mmHg 67%
    17:00 +13°C° 0.5 mm 3 mps 634 mmHg 73%
    18:00 +12°C° 0.5 mm 3 mps 633 mmHg 78%
    19:00 +11°C° 0.5 mm 3 mps 633 mmHg 81%
    20:00 +11°C° 0.5 mm 3 mps 633 mmHg 84%
    21:00 +10°C° 0.5 mm 3 mps 633 mmHg 86%
    22:00 +10°C° 0.2 mm 2 mps 633 mmHg 87%
    23:00 +9°C° 0.2 mm 2 mps 633 mmHg 89%

    30 September, Saturday

    Time Temperature Precipitation Wind Pressure Humidity
    00:00 +9°C° 0.2 mm 2 mps 633 mmHg 90%
    01:00 +9°C° 0.3 mm 2 mps 633 mmHg 90%
    02:00 +9°C° 0.3 mm 2 mps 632 mmHg 89%
    03:00 +9°C° 0.3 mm 2 mps 632 mmHg 89%
    04:00 +9°C° 0.5 mm 2 mps 632 mmHg 89%
    05:00 +9°C° 0.5 mm 2 mps 632 mmHg 89%
    06:00 +9°C° 0.5 mm 2 mps 632 mmHg 89%
    07:00 +10°C° 0.4 mm 2 mps 632 mmHg 86%
    08:00 +12°C° 0.4 mm 2 mps 632 mmHg 83%
    09:00 +12°C° 0.4 mm 2 mps 633 mmHg 80%
    10:00 +13°C° 1 mm 2 mps 633 mmHg 79%
    11:00 +13°C° 1 mm 2 mps 632 mmHg 78%
    12:00 +12°C° 1 mm 3 mps 632 mmHg 76%
    13:00 +14°C° 0.2 mm 2 mps 632 mmHg 72%
    14:00 +15°C° 0.2 mm 2 mps 632 mmHg 68%
    15:00 +15°C° 0.2 mm 1 mps 632 mmHg 64%
    16:00 +14°C° 0 mm 1 mps 632 mmHg 67%
    17:00 +13°C° 0 mm 1 mps 632 mmHg 71%
    18:00 +12°C° 0 mm 2 mps 631 mmHg 74%
    19:00 +12°C° 0.1 mm 1 mps 631 mmHg 77%
    20:00 +11°C° 0.1 mm 1 mps 632 mmHg 80%
    21:00 +11°C° 0.1 mm 1 mps 632 mmHg 83%
    22:00 +11°C° 0.1 mm 1 mps 632 mmHg 82%
    23:00 +10°C° 0.1 mm 1 mps 632 mmHg 82%
    Show more